KLM646 KJFK-EHAM

Flight info

Callsign KLM646
Flight time N/A
Altitude 37000
Route GREKI DCT JUDDS DCT MARTN DCT EBONY N567B TUDEP/M084F390 DCT 52N050W 55N040W 56N030W 56N020W DCT RESNO DCT NETKI/N0484F410 DCT NIBOG DCT BELOX L603 LAMSO
Aircraft B772/H-SDE2E3FGHIJ5LORVWXY/LB1D1

Departure

Time 2026-05-09 18:18
Airport John F. Kennedy International Airport (KJFK)

Arrival

Time N/A
Airport Amsterdam Airport Schiphol (EHAM)
Time Latitude Longitude Altitude Speed Heading
2026-05-09 17:45 40.64096 -73.78326 27 ft 0 kts 61°
2026-05-09 18:01 40.64092 -73.78335 27 ft 4 kts 61°
2026-05-09 18:01 40.64079 -73.78366 25 ft 4 kts 61°
2026-05-09 18:02 40.64068 -73.78391 25 ft 4 kts 72°
2026-05-09 18:02 40.64069 -73.78421 27 ft 4 kts 129°
2026-05-09 18:02 40.64083 -73.78437 24 ft 1 kts 151°
2026-05-09 18:02 40.64065 -73.78424 25 ft 4 kts 151°
2026-05-09 18:03 40.64058 -73.78418 25 ft 0 kts 151°
2026-05-09 18:04 40.64057 -73.78417 25 ft 0 kts 151°
2026-05-09 18:05 40.64046 -73.78409 26 ft 6 kts 150°
2026-05-09 18:05 40.63996 -73.78373 27 ft 8 kts 151°
2026-05-09 18:05 40.63974 -73.78355 27 ft 3 kts 149°
2026-05-09 18:05 40.63966 -73.78349 27 ft 0 kts 149°
2026-05-09 18:06 40.63957 -73.78343 27 ft 5 kts 153°
2026-05-09 18:06 40.63896 -73.78304 27 ft 14 kts 159°
2026-05-09 18:06 40.63801 -73.78284 27 ft 12 kts 171°
2026-05-09 18:07 40.63715 -73.78270 27 ft 12 kts 174°
2026-05-09 18:07 40.63629 -73.78257 27 ft 12 kts 174°
2026-05-09 18:07 40.63545 -73.78278 29 ft 13 kts 208°
2026-05-09 18:07 40.63466 -73.78324 30 ft 13 kts 178°
2026-05-09 18:08 40.63406 -73.78239 30 ft 16 kts 120°
2026-05-09 18:08 40.63352 -73.78109 29 ft 16 kts 116°
2026-05-09 18:08 40.63329 -73.77971 29 ft 21 kts 83°
2026-05-09 18:08 40.63394 -73.77796 31 ft 19 kts 36°
2026-05-09 18:09 40.63509 -73.77706 26 ft 19 kts 32°
2026-05-09 18:09 40.63622 -73.77617 30 ft 19 kts 30°
2026-05-09 18:09 40.63737 -73.77527 24 ft 19 kts 30°
2026-05-09 18:09 40.63851 -73.77438 29 ft 19 kts 30°
2026-05-09 18:10 40.63966 -73.77348 28 ft 19 kts 31°
2026-05-09 18:10 40.64043 -73.77288 25 ft 19 kts 31°
2026-05-09 18:10 40.64195 -73.77169 29 ft 19 kts 31°
2026-05-09 18:10 40.64309 -73.77079 27 ft 19 kts 31°
2026-05-09 18:11 40.64427 -73.76999 29 ft 19 kts 17°
2026-05-09 18:11 40.64555 -73.76954 23 ft 19 kts 34°
2026-05-09 18:11 40.64668 -73.76862 24 ft 19 kts 30°
2026-05-09 18:11 40.64781 -73.76773 28 ft 19 kts 31°
2026-05-09 18:12 40.64897 -73.76684 31 ft 19 kts 31°
2026-05-09 18:12 40.65012 -73.76595 30 ft 19 kts 29°
2026-05-09 18:12 40.65057 -73.76559 31 ft 0 kts 31°
2026-05-09 18:14 40.65063 -73.76554 31 ft 6 kts 31°
2026-05-09 18:14 40.65097 -73.76501 30 ft 5 kts 65°
2026-05-09 18:14 40.65094 -73.76462 26 ft 5 kts 121°
2026-05-09 18:14 40.65093 -73.76460 26 ft 0 kts 121°
2026-05-09 18:16 40.65093 -73.76459 26 ft 1 kts 121°
2026-05-09 18:16 40.65062 -73.76393 27 ft 16 kts 125°
2026-05-09 18:16 40.64985 -73.76378 27 ft 8 kts 219°
2026-05-09 18:16 40.64953 -73.76408 27 ft 0 kts 212°
2026-05-09 18:17 40.64903 -73.76448 32 ft 29 kts 210°
2026-05-09 18:17 40.64518 -73.76749 30 ft 94 kts 211°
2026-05-09 18:18 40.63787 -73.77321 28 ft 150 kts 211°
2026-05-09 18:18 40.62776 -73.78110 282 ft 184 kts 209°
2026-05-09 18:18 40.61738 -73.78918 1441 ft 160 kts 212°
2026-05-09 18:18 40.60749 -73.79627 2229 ft 165 kts 210°
2026-05-09 18:19 40.59663 -73.80402 2521 ft 191 kts 211°
2026-05-09 18:19 40.57101 -73.82213 3319 ft 218 kts 211°
2026-05-09 18:19 40.55755 -73.83162 3823 ft 228 kts 208°
2026-05-09 18:20 40.54184 -73.83651 4303 ft 242 kts 181°
2026-05-09 18:20 40.52542 -73.82977 4904 ft 257 kts 154°
2026-05-09 18:20 40.51224 -73.81294 4961 ft 276 kts 128°
2026-05-09 18:20 40.50580 -73.78872 4992 ft 290 kts 100°
2026-05-09 18:21 40.50743 -73.76226 4995 ft 293 kts 81°
2026-05-09 18:21 40.51237 -73.73618 5005 ft 295 kts 78°
2026-05-09 18:21 40.51779 -73.71003 5002 ft 298 kts 78°
2026-05-09 18:21 40.52335 -73.68369 4998 ft 299 kts 78°
2026-05-09 18:22 40.52899 -73.65739 5006 ft 299 kts 77°
2026-05-09 18:22 40.53504 -73.63175 4980 ft 297 kts 68°
2026-05-09 18:22 40.54576 -73.60839 5454 ft 302 kts 57°
2026-05-09 18:22 40.55778 -73.58539 6127 ft 307 kts 58°
2026-05-09 18:23 40.56990 -73.56227 6836 ft 308 kts 57°
2026-05-09 18:23 40.58213 -73.53901 7498 ft 310 kts 58°
2026-05-09 18:23 40.59442 -73.51580 8203 ft 312 kts 57°
2026-05-09 18:23 40.60693 -73.49220 8751 ft 317 kts 57°
2026-05-09 18:24 40.61963 -73.46811 9286 ft 322 kts 57°
2026-05-09 18:24 40.63245 -73.44379 9864 ft 323 kts 57°
2026-05-09 18:24 40.64516 -73.41950 10016 ft 329 kts 57°
2026-05-09 18:25 40.68176 -73.38659 10198 ft 331 kts
2026-05-09 18:25 40.70487 -73.38029 10336 ft 348 kts
2026-05-09 18:25 40.72919 -73.37346 10481 ft 367 kts
2026-05-09 18:25 40.75478 -73.36569 10633 ft 388 kts
2026-05-09 18:26 40.78152 -73.35695 11067 ft 402 kts 11°
2026-05-09 18:26 40.80886 -73.34754 11705 ft 410 kts 11°
2026-05-09 18:26 40.83658 -73.33766 12507 ft 414 kts 11°
2026-05-09 18:26 40.86415 -73.32765 13300 ft 419 kts 11°
2026-05-09 18:27 40.89234 -73.31734 14081 ft 422 kts 11°
2026-05-09 18:27 40.92072 -73.30693 14802 ft 425 kts 10°
2026-05-09 18:27 40.94933 -73.29643 15506 ft 428 kts 11°
2026-05-09 18:27 40.97811 -73.28588 16206 ft 431 kts 10°
2026-05-09 18:28 41.00716 -73.27523 16790 ft 437 kts 10°
2026-05-09 18:28 41.03660 -73.26444 17424 ft 441 kts 10°
2026-05-09 18:28 41.06627 -73.25355 18100 ft 444 kts 10°
2026-05-09 18:28 41.09612 -73.24259 18688 ft 447 kts 10°
2026-05-09 18:29 41.12580 -73.23167 19205 ft 451 kts 10°
2026-05-09 18:29 41.15618 -73.22050 19710 ft 455 kts 10°
2026-05-09 18:29 41.18684 -73.20920 20191 ft 460 kts 10°
2026-05-09 18:29 41.21787 -73.19776 20647 ft 465 kts 10°
2026-05-09 18:30 41.24917 -73.18620 21139 ft 468 kts 11°
2026-05-09 18:30 41.28069 -73.17453 21640 ft 472 kts 11°
2026-05-09 18:30 41.31240 -73.16280 22135 ft 475 kts 11°
2026-05-09 18:30 41.34411 -73.15039 22524 ft 478 kts 16°
2026-05-09 18:31 41.37376 -73.13000 22807 ft 495 kts 33°
2026-05-09 18:31 41.39918 -73.09875 23340 ft 501 kts 49°
2026-05-09 18:31 41.41838 -73.06016 23825 ft 499 kts 61°
2026-05-09 18:31 41.43535 -73.01956 24080 ft 505 kts 61°
2026-05-09 18:32 41.45270 -72.97850 24392 ft 510 kts 60°
2026-05-09 18:32 41.47040 -72.93730 24770 ft 514 kts 60°
2026-05-09 18:32 41.48838 -72.89595 25168 ft 518 kts 59°
2026-05-09 18:32 41.50661 -72.85436 25601 ft 521 kts 59°
2026-05-09 18:33 41.52499 -72.81255 26048 ft 524 kts 59°
2026-05-09 18:33 41.54321 -72.77107 26472 ft 527 kts 59°
2026-05-09 18:33 41.56179 -72.72871 26845 ft 531 kts 59°
2026-05-09 18:33 41.58047 -72.68600 27184 ft 534 kts 59°
2026-05-09 18:34 41.59917 -72.64313 27578 ft 536 kts 59°
2026-05-09 18:34 41.61796 -72.60001 27943 ft 538 kts 59°
2026-05-09 18:34 41.63685 -72.55660 28302 ft 541 kts 59°
2026-05-09 18:34 41.65593 -72.51314 28613 ft 544 kts 58°
2026-05-09 18:35 41.67544 -72.46965 28929 ft 547 kts 58°
2026-05-09 18:35 41.69521 -72.42606 29210 ft 550 kts 57°
2026-05-09 18:35 41.71511 -72.38223 29518 ft 552 kts 58°
2026-05-09 18:35 41.73475 -72.33880 29812 ft 554 kts 58°
2026-05-09 18:36 41.75465 -72.29459 30087 ft 556 kts 58°
2026-05-09 18:36 41.77460 -72.25011 30342 ft 557 kts 57°
2026-05-09 18:36 41.79450 -72.20557 30658 ft 557 kts 57°
2026-05-09 18:36 41.81434 -72.16111 31003 ft 555 kts 57°
2026-05-09 18:37 41.83411 -72.11671 31378 ft 555 kts 57°
2026-05-09 18:37 41.85387 -72.07228 31709 ft 554 kts 57°
2026-05-09 18:37 41.87358 -72.02792 32100 ft 552 kts 57°
2026-05-09 18:37 41.89321 -71.98369 32500 ft 551 kts 57°
2026-05-09 18:38 41.91249 -71.94019 32892 ft 549 kts 57°
2026-05-09 18:38 41.93204 -71.89623 33256 ft 547 kts 56°
2026-05-09 18:38 41.95337 -71.85419 33723 ft 542 kts 50°
2026-05-09 18:40 42.13681 -71.60643 35898 ft 534 kts 40°
2026-05-09 18:40 42.16345 -71.57148 36224 ft 535 kts 40°
2026-05-09 18:40 42.19009 -71.53641 36549 ft 535 kts 40°
2026-05-09 18:41 42.21665 -71.50136 36874 ft 534 kts 40°
2026-05-09 18:41 42.27019 -71.43070 37002 ft 542 kts 40°
2026-05-09 18:42 42.32449 -71.35892 37002 ft 550 kts 40°
2026-05-09 18:42 42.37898 -71.28666 37005 ft 554 kts 40°
2026-05-09 18:43 42.43407 -71.21340 37009 ft 557 kts 40°
2026-05-09 18:43 42.48933 -71.13972 37016 ft 558 kts 40°
2026-05-09 18:44 42.54461 -71.06585 37010 ft 557 kts 40°
2026-05-09 18:44 42.59930 -70.99255 37005 ft 556 kts 40°
2026-05-09 18:45 42.65416 -70.91884 37003 ft 554 kts 41°
2026-05-09 18:45 42.70418 -70.83878 37007 ft 558 kts 53°
2026-05-09 18:46 42.74608 -70.75015 37014 ft 557 kts 55°
2026-05-09 18:46 42.78707 -70.66168 37011 ft 556 kts 55°
2026-05-09 18:47 42.82866 -70.57287 37007 ft 556 kts 54°
2026-05-09 18:47 42.87049 -70.48416 37008 ft 556 kts 54°
2026-05-09 18:48 42.91232 -70.39536 37061 ft 557 kts 54°
2026-05-09 18:48 42.95341 -70.30778 37021 ft 558 kts 55°
2026-05-09 18:49 42.99494 -70.21892 37021 ft 559 kts 55°
2026-05-09 18:49 43.03672 -70.12922 37013 ft 560 kts 55°
2026-05-09 18:50 43.07845 -70.03937 37026 ft 560 kts 55°
2026-05-09 18:50 43.12016 -69.94929 37029 ft 560 kts 55°
2026-05-09 18:51 43.16183 -69.85905 37020 ft 561 kts 54°
2026-05-09 18:51 43.20317 -69.76924 37044 ft 561 kts 55°
2026-05-09 18:52 43.24473 -69.67866 37039 ft 561 kts 55°
2026-05-09 18:52 43.28621 -69.58796 37040 ft 561 kts 55°
2026-05-09 18:53 43.32764 -69.49711 37056 ft 561 kts 55°
2026-05-09 18:53 43.36900 -69.40613 37054 ft 561 kts 55°
2026-05-09 18:54 43.41001 -69.31564 37044 ft 561 kts 55°
2026-05-09 18:54 43.45120 -69.22447 37053 ft 561 kts 55°
2026-05-09 18:55 43.49226 -69.13331 37064 ft 561 kts 55°
2026-05-09 18:55 43.53330 -69.04189 37060 ft 561 kts 55°
2026-05-09 18:56 43.57399 -68.95097 37064 ft 561 kts 55°
2026-05-09 18:56 43.61485 -68.85939 37075 ft 561 kts 55°
2026-05-09 18:57 43.65566 -68.76763 37077 ft 561 kts 55°
2026-05-09 18:57 43.69640 -68.67574 37061 ft 560 kts 55°
2026-05-09 18:58 43.73675 -68.58445 37096 ft 560 kts 55°
2026-05-09 18:58 43.77728 -68.49244 37081 ft 560 kts 55°
2026-05-09 18:59 43.81772 -68.40036 37081 ft 560 kts 55°
2026-05-09 18:59 43.85809 -68.30815 37087 ft 559 kts 56°
2026-05-09 19:00 43.89835 -68.21588 37092 ft 560 kts 56°
2026-05-09 19:00 43.95836 -68.07782 37082 ft 559 kts 56°
2026-05-09 19:01 43.99836 -67.98541 37093 ft 558 kts 56°
2026-05-09 19:01 44.03833 -67.89279 37094 ft 558 kts 56°
2026-05-09 19:02 44.07749 -67.80174 37096 ft 558 kts 56°
2026-05-09 19:02 44.11697 -67.70968 37081 ft 558 kts 56°
2026-05-09 19:03 44.15665 -67.61684 37097 ft 558 kts 56°
2026-05-09 19:03 44.19624 -67.52389 37096 ft 558 kts 56°
2026-05-09 19:04 44.23573 -67.43088 37094 ft 557 kts 56°
2026-05-09 19:04 44.27509 -67.33788 37120 ft 556 kts 56°
2026-05-09 19:05 44.31410 -67.24541 37097 ft 556 kts 56°
2026-05-09 19:05 44.35324 -67.15231 37095 ft 556 kts 56°
2026-05-09 19:06 44.39229 -67.05917 37100 ft 556 kts 56°
2026-05-09 19:06 44.43287 -66.96748 37097 ft 552 kts 50°
2026-05-09 19:07 44.47822 -66.88105 37095 ft 551 kts 49°
2026-05-09 19:07 44.52371 -66.79564 37089 ft 550 kts 49°
2026-05-09 19:08 44.56915 -66.70924 37097 ft 551 kts 49°
2026-05-09 19:08 44.61431 -66.62240 37095 ft 551 kts 50°
2026-05-09 19:09 44.65936 -66.53528 37093 ft 551 kts 50°
2026-05-09 19:09 44.70400 -66.44874 37100 ft 551 kts 50°
2026-05-09 19:10 44.74891 -66.36150 37100 ft 551 kts 50°
2026-05-09 19:10 44.79373 -66.27420 37093 ft 550 kts 50°
2026-05-09 19:11 44.83848 -66.18676 37095 ft 550 kts 50°
2026-05-09 19:11 44.88287 -66.09975 37093 ft 550 kts 50°
2026-05-09 19:12 44.92748 -66.01205 37098 ft 550 kts 50°
2026-05-09 19:12 44.97198 -65.92429 37092 ft 550 kts 50°
2026-05-09 19:13 45.01642 -65.83638 37095 ft 549 kts 50°
2026-05-09 19:13 45.06042 -65.74906 37089 ft 549 kts 50°
2026-05-09 19:14 45.10465 -65.66102 37091 ft 548 kts 50°
2026-05-09 19:14 45.14874 -65.57302 37102 ft 548 kts 51°
2026-05-09 19:15 45.19274 -65.48491 37092 ft 547 kts 51°
2026-05-09 19:15 45.23663 -65.39673 37092 ft 547 kts 51°
2026-05-09 19:16 45.28015 -65.30905 37098 ft 547 kts 51°
2026-05-09 19:16 45.32389 -65.22063 37093 ft 547 kts 51°
2026-05-09 19:17 45.36753 -65.13215 37087 ft 547 kts 51°
2026-05-09 19:17 45.41111 -65.04353 37087 ft 547 kts 51°
2026-05-09 19:18 45.45435 -64.95530 37098 ft 547 kts 51°
2026-05-09 19:18 45.49787 -64.86623 37093 ft 547 kts 51°
2026-05-09 19:19 45.54130 -64.77708 37086 ft 548 kts 51°
2026-05-09 19:19 45.58468 -64.68776 37097 ft 548 kts 52°
2026-05-09 19:20 45.62802 -64.59823 37083 ft 548 kts 52°
2026-05-09 19:20 45.67095 -64.50925 37069 ft 547 kts 52°
2026-05-09 19:21 45.71410 -64.41953 37097 ft 547 kts 52°
2026-05-09 19:21 45.75718 -64.32966 37068 ft 547 kts 52°
2026-05-09 19:22 45.80014 -64.23982 37058 ft 546 kts 52°
2026-05-09 19:22 45.84299 -64.14987 37059 ft 546 kts 53°
2026-05-09 19:23 45.88545 -64.06046 37062 ft 546 kts 53°
2026-05-09 19:23 45.92812 -63.97033 37062 ft 545 kts 53°
2026-05-09 19:24 45.97069 -63.88013 37058 ft 545 kts 53°
2026-05-09 19:24 46.01317 -63.78983 37073 ft 545 kts 53°
2026-05-09 19:25 46.05530 -63.69997 37059 ft 545 kts 53°
2026-05-09 19:25 46.09760 -63.60947 37071 ft 544 kts 53°
2026-05-09 19:26 46.13982 -63.51883 37074 ft 544 kts 53°
2026-05-09 19:26 46.18196 -63.42810 37076 ft 544 kts 54°
2026-05-09 19:27 46.22375 -63.33781 37072 ft 544 kts 54°
2026-05-09 19:27 46.26569 -63.24690 37074 ft 544 kts 54°
2026-05-09 19:28 46.30760 -63.15578 37085 ft 544 kts 54°
2026-05-09 19:28 46.34938 -63.06462 37075 ft 544 kts 54°
2026-05-09 19:29 46.39108 -62.97336 37073 ft 543 kts 54°
2026-05-09 19:29 46.43243 -62.88255 37070 ft 543 kts 54°
2026-05-09 19:30 46.47394 -62.79112 37083 ft 543 kts 55°
2026-05-09 19:30 46.51533 -62.69962 37085 ft 542 kts 55°
2026-05-09 19:31 46.55666 -62.60798 37090 ft 542 kts 55°
2026-05-09 19:31 46.59790 -62.51623 37098 ft 542 kts 55°
2026-05-09 19:32 46.63878 -62.42498 37098 ft 542 kts 55°
2026-05-09 19:32 46.67986 -62.33298 37087 ft 542 kts 55°
2026-05-09 19:33 46.72084 -62.24089 37107 ft 542 kts 56°
2026-05-09 19:33 46.76177 -62.14862 37102 ft 542 kts 56°
2026-05-09 19:34 46.80236 -62.05679 37076 ft 542 kts 56°
2026-05-09 19:34 46.84241 -61.96589 37104 ft 542 kts 56°
2026-05-09 19:35 46.88308 -61.87328 37110 ft 542 kts 56°
2026-05-09 19:35 46.92369 -61.78052 37094 ft 541 kts 56°
2026-05-09 19:36 46.96390 -61.68832 37103 ft 541 kts 56°
2026-05-09 19:36 47.00432 -61.59537 37093 ft 541 kts 56°
2026-05-09 19:37 47.04466 -61.50228 37099 ft 541 kts 57°
2026-05-09 19:37 47.08490 -61.40909 37097 ft 542 kts 57°
2026-05-09 19:38 47.10504 -61.36234 37216 ft 543 kts 57°
2026-05-09 19:38 47.12519 -61.31547 37393 ft 542 kts 57°
2026-05-09 19:38 47.14503 -61.26926 37600 ft 541 kts 57°
2026-05-09 19:38 47.16505 -61.22254 37789 ft 541 kts 57°
2026-05-09 19:39 47.18507 -61.17574 37960 ft 541 kts 57°
2026-05-09 19:39 47.20508 -61.12890 38067 ft 542 kts 57°
2026-05-09 19:39 47.22510 -61.08193 38177 ft 542 kts 57°
2026-05-09 19:39 47.24513 -61.03487 38343 ft 542 kts 57°
2026-05-09 19:40 47.26513 -60.98781 38491 ft 542 kts 57°
2026-05-09 19:40 47.28510 -60.94073 38651 ft 542 kts 58°
2026-05-09 19:40 47.30481 -60.89417 38773 ft 543 kts 58°
2026-05-09 19:40 47.32475 -60.84701 38887 ft 543 kts 58°
2026-05-09 19:41 47.36460 -60.75249 39043 ft 543 kts 58°
2026-05-09 19:41 47.40446 -60.65764 39100 ft 544 kts 58°
2026-05-09 19:42 47.44402 -60.56315 39113 ft 545 kts 58°
2026-05-09 19:42 47.48389 -60.46760 39110 ft 546 kts 58°
2026-05-09 19:43 47.52370 -60.37186 39107 ft 547 kts 58°
2026-05-09 19:43 47.56344 -60.27593 39100 ft 546 kts 58°
2026-05-09 19:44 47.60305 -60.17999 39103 ft 546 kts 58°
2026-05-09 19:44 47.64230 -60.08460 39111 ft 545 kts 58°
2026-05-09 19:45 47.68166 -59.98858 39108 ft 545 kts 58°
2026-05-09 19:45 47.72093 -59.89245 39120 ft 544 kts 59°
2026-05-09 19:46 47.76009 -59.79627 39112 ft 544 kts 59°
2026-05-09 19:46 47.79886 -59.70066 39115 ft 543 kts 59°
2026-05-09 19:47 47.83780 -59.60433 39114 ft 543 kts 59°
2026-05-09 19:47 47.87666 -59.50785 39122 ft 543 kts 59°
2026-05-09 19:48 47.91536 -59.41141 39116 ft 542 kts 59°
2026-05-09 19:48 47.95371 -59.31550 39097 ft 542 kts 59°
2026-05-09 19:49 47.99219 -59.21893 39111 ft 541 kts 59°
2026-05-09 19:49 48.03055 -59.12231 39109 ft 541 kts 60°
2026-05-09 19:50 48.06878 -59.02566 39101 ft 540 kts 60°
2026-05-09 19:50 48.10665 -58.92958 39099 ft 539 kts 60°
2026-05-09 19:51 48.14462 -58.83291 39102 ft 539 kts 60°
2026-05-09 19:51 48.18253 -58.73604 39098 ft 539 kts 60°
2026-05-09 19:52 48.22033 -58.63909 39095 ft 539 kts 60°
2026-05-09 19:52 48.25780 -58.54264 39096 ft 539 kts 60°
2026-05-09 19:53 48.29544 -58.44538 39094 ft 539 kts 60°
2026-05-09 19:53 48.33299 -58.34804 39080 ft 538 kts 61°
2026-05-09 19:54 48.37044 -58.25058 39085 ft 538 kts 61°
2026-05-09 19:54 48.40756 -58.15362 39088 ft 538 kts 61°
2026-05-09 19:55 48.44423 -58.05750 39093 ft 538 kts 61°
2026-05-09 19:56 48.49997 -57.91071 39094 ft 538 kts 62°
2026-05-09 19:56 48.53701 -57.81269 39083 ft 537 kts 62°
2026-05-09 19:57 48.57394 -57.71465 39082 ft 537 kts 62°
2026-05-09 19:57 48.61078 -57.61645 39074 ft 537 kts 62°
2026-05-09 19:58 48.64750 -57.51822 39070 ft 536 kts 62°
2026-05-09 19:58 48.68411 -57.41990 39065 ft 536 kts 62°
2026-05-09 19:59 48.72035 -57.32221 39066 ft 535 kts 62°
2026-05-09 19:59 48.75675 -57.22374 39054 ft 535 kts 62°
2026-05-09 20:00 48.79302 -57.12521 39041 ft 535 kts 62°
2026-05-09 20:00 48.82932 -57.02626 39043 ft 535 kts 63°
2026-05-09 20:01 48.86547 -56.92738 39037 ft 535 kts 63°
2026-05-09 20:01 48.90151 -56.82840 39035 ft 535 kts 63°
2026-05-09 20:02 48.93746 -56.72925 39032 ft 535 kts 63°
2026-05-09 20:02 48.97312 -56.63055 39034 ft 535 kts 63°
2026-05-09 20:03 49.02680 -56.48130 39047 ft 535 kts 63°
2026-05-09 20:03 49.05648 -56.39840 39032 ft 535 kts 64°
2026-05-09 20:04 49.09210 -56.29855 39055 ft 535 kts 64°
2026-05-09 20:04 49.12763 -56.19857 39056 ft 536 kts 64°
2026-05-09 20:05 49.16311 -56.09832 39062 ft 537 kts 64°
2026-05-09 20:05 49.19861 -55.99765 39066 ft 537 kts 64°